Temp
39 32 30 33 37 37 35 35 35 40 46 42 40 39 43 49 47 48 48 49 53 56 58 60 62 65 66 67 66 67 67 69 69 67 66 67 67 68 68 68 70 70 71 69
35 31 39 39 40 38 37 35 38 41 45 43 41 40 43 47 47 48 49 49 52 54 56 59 60 61 63 65 66 67 68 69 68 68 68 67 66 65 66 67 68 71 69 69
32 36 42 37 37 36 36 37 38 38 42 45 42 38 41 44 50 48 50 51 50 53 55 56 58 58 60 61 64 66 67 68 68 69 66 64 64 63 64 64 65 66 67 67
36 42 39 35 37 42 33 43 42 40 37 33 42 30 38 42 45 47 47 48 51 52 54 56 57 58 58 59 61 63 64 66 67 66 67 65 65 64 64 64 63 62 62 62
35 37 36 35 39 42 37 45 43 41 38 37 37 33 38 41 41 44 47 48 51 52 54 57 58 59 60 59 59 60 62 62 63 64 65 64 64 65 61 61 61 60 60 60
37 37 38 40 43 44 46 42 39 38 36 28 35 34 36 40 44 46 48 49 50 52 52 55 57 57 58 57 58 58 60 61 61 62 63 63 62 60 60 59 59 58 57 57
37 39 44 42 40 44 42 35 25 25 26 25 36 33 40 46 49 46 49 49 49 50 51 52 53 55 56 56 56 56 57 59 59 58 61 62 60 60 59 59 58 56 55 55
22 27 38 44 40 38 37 36 26 23 24 26 36 31 38 47 48 47 46 47 47 48 48 50 52 52 53 55 55 55 56 56 56 55 56 57 57 57 57 57 57 56 55 53
26 31 43 43 44 42 38 29 37 28 28 24 30 36 45 47 47 47 46 47 46 47 48 47 47 51 50 51 53 53 54 54 54 55 54 54 54 54 54 55 56 55 54 53
32 31 40 44 46 44 41 41 29 27 22 21 25 28 33 40 44 47 46 45 46 47 47 47 47 47 48 49 49 50 52 53 53 53 52 52 52 52 52 52 51 52 52 51
34 31 33 37 35 35 36 35 33 32 28 25 23 29 38 40 42 45 42 44 44 45 46 46 46 46 46 47 48 49 50 51 50 50 49 49 49 49 49 50 50 51 51 51
36 31 27 29 38 40 38 34 33 26 26 22 24 29 40 37 39 44 43 45 44 45 47 46 46 46 46 46 47 48 48 49 49 49 48 48 48 48 47 46 47 47 47 48
37 28 19 26 33 37 34 35 34 32 28 22 21 29 43 38 42 44 43 47 47 48 48 47 46 46 45 45 46 47 47 48 48 48 47 46 46 46 45 45 46 46 45 45
43 31 28 21 28 31 31 34 34 31 22 26 26 30 37 41 42 44 45 45 45 47 48 47 47 46 45 45 45 46 46 47 46 46 46 45 44 45 45 46 47 45 44 44
38 28 25 31 33 33 33 34 32 26 30 26 31 32 38 41 41 43 45 46 46 48 49 48 47 46 45 45 45 45 45 45 45 45 44 44 44 45 44 44 43 44 45 43
36 26 28 28 33 33 32 32 32 33 33 33 32 33 42 42 43 44 44 45 45 46 47 47 47 46 46 45 45 45 45 45 44 44 44 44 43 43 42 41 41 43 41 39
33 30 26 22 29 30 26 31 32 32 33 34 30 37 39 40 42 42 44 45 45 46 46 47 46 45 45 46 46 46 46 44 43 43 43 43 42 41 40 39 39 38 37 37
33 30 29 21 26 16 32 36 37 35 37 37 37 39 39 39 41 42 43 43 45 46 47 48 47 47 47 47 46 45 44 43 43 42 42 42 41 40 39 38 37 36 35 36
35 31 26 23 19 27 30 34 34 32 33 37 37 38 39 40 40 41 44 43 43 44 45 45 46 46 45 45 46 44 43 42 42 42 43 42 42 40 38 37 36 35 35 34
35 33 29 24 21 20 30 35 38 36 26 36 37 36 36 37 30 35 41 43 44 46 45 44 44 43 42 45 43 42 42 41 41 44 44 43 42 41 39 38 36 35 34 33
28 27 25 26 23 27 34 37 38 24 27 36 36 36 36 32 36 41 42 41 42 43 44 44 42 41 43 42 40 40 41 41 45 44 42 42 42 41 40 38 35 34 32 34
28 24 24 24 21 19 35 35 29 33 35 37 36 36 36 37 39 40 42 42 43 42 42 44 41 42 43 41 40 40 39 44 43 42 42 41 40 41 39 37 34 34 34 33
27 31 28 29 29 36 35 36 38 37 35 35 34 36 37 36 37 39 40 41 42 42 43 43 42 42 42 41 40 39 42 41 41 41 43 42 40 39 38 36 34 34 33 34
28 32 30 31 32 34 34 37 36 35 33 35 36 36 36 36 40 40 41 42 42 43 44 44 41 39 41 41 40 40 41 40 40 41 43 42 41 40 40 39 38 36 35 34
31 32 30 30 32 33 34 34 32 33 34 35 36 37 38 38 38 39 39 40 42 43 46 45 44 44 42 41 40 40 41 40 39 39 41 41 40 39 38 38 38 38 37 38
32 32 30 30 34 34 34 32 33 33 33 34 36 37 40 40 38 39 38 39 39 41 44 44 45 45 43 42 41 41 43 43 42 41 40 40 40 39 38 37 37 41 41 42
MSLP
1014.55 1014.68 1013.84 1013.70 1013.31 1013.15 1012.81 1012.49 1011.94 1012.03 1012.73 1013.14 1014.53 1014.40 1014.17 1013.27 1011.84 1011.21 1010.74 1010.67 1010.35 1010.19 1010.28 1010.08 1010.62 1010.95 1011.46 1012.75 1013.32 1013.29 1013.74 1013.23 1013.94 1014.83 1014.73 1014.51 1014.40 1015.19 1015.49 1015.88 1015.80 1015.96 1016.29 1016.72
1014.36 1013.51 1012.82 1013.25 1012.98 1013.05 1012.46 1011.99 1012.03 1012.19 1012.83 1013.75 1013.94 1014.13 1013.08 1011.77 1011.83 1011.61 1010.99 1010.91 1010.70 1010.31 1010.53 1010.57 1011.03 1011.59 1011.76 1012.05 1012.43 1012.66 1012.63 1012.82 1013.36 1013.44 1013.65 1014.18 1014.35 1015.30 1015.32 1015.34 1015.59 1015.70 1015.84 1016.26
1013.59 1012.50 1012.22 1012.73 1012.52 1012.08 1011.71 1011.52 1011.69 1011.78 1012.72 1013.63 1013.47 1013.31 1013.23 1012.63 1011.79 1011.93 1011.55 1011.07 1010.97 1010.80 1010.79 1010.96 1011.66 1011.81 1012.16 1012.01 1012.12 1012.20 1012.30 1012.67 1013.03 1013.30 1013.87 1014.07 1014.92 1015.27 1015.48 1015.43 1015.35 1015.68 1015.86 1015.76
1012.71 1012.12 1012.15 1011.86 1011.95 1011.59 1011.21 1010.98 1010.90 1011.45 1012.83 1012.51 1013.45 1013.71 1013.13 1012.50 1011.72 1011.85 1011.49 1011.20 1010.74 1010.91 1011.21 1011.27 1011.42 1011.73 1011.96 1011.90 1012.10 1012.46 1012.42 1012.55 1012.73 1013.07 1013.39 1013.94 1014.59 1015.18 1014.93 1014.89 1015.11 1015.99 1016.29 1016.58
1012.30 1012.10 1012.16 1011.89 1011.38 1011.04 1010.85 1010.80 1011.29 1011.92 1012.36 1013.12 1013.67 1013.18 1012.36 1012.29 1012.06 1011.71 1011.19 1011.50 1011.24 1011.00 1011.15 1011.44 1011.68 1011.49 1011.47 1011.94 1012.21 1012.51 1012.55 1012.90 1012.93 1013.17 1013.26 1013.43 1013.95 1014.19 1014.65 1015.03 1015.66 1016.46 1016.66 1016.64
1011.37 1012.42 1012.26 1011.38 1010.63 1010.26 1010.41 1011.10 1012.03 1012.82 1013.24 1013.74 1013.68 1013.19 1012.03 1012.01 1011.74 1010.68 1010.95 1011.31 1011.32 1011.24 1011.06 1011.31 1011.36 1011.74 1011.72 1011.91 1012.14 1012.31 1012.42 1012.48 1012.59 1013.07 1013.27 1013.29 1013.54 1013.91 1014.49 1014.93 1015.63 1016.50 1017.10 1017.38
1011.86 1011.74 1011.46 1011.18 1010.90 1010.87 1010.74 1011.50 1012.77 1013.47 1013.63 1014.10 1013.49 1013.19 1012.08 1011.40 1011.05 1010.89 1010.95 1010.75 1010.88 1011.41 1011.65 1011.51 1011.62 1011.82 1011.80 1011.82 1011.82 1011.95 1012.12 1012.23 1012.36 1012.95 1013.03 1013.14 1013.66 1013.86 1014.24 1014.77 1015.44 1016.16 1017.15 1017.91
1013.16 1013.11 1012.68 1012.09 1012.23 1012.17 1012.27 1012.29 1012.53 1013.27 1013.94 1014.05 1013.73 1013.38 1011.57 1011.07 1011.04 1011.15 1010.87 1011.03 1011.21 1011.57 1011.80 1011.90 1011.82 1011.74 1011.71 1011.60 1011.70 1011.91 1011.99 1012.20 1012.26 1012.61 1012.96 1013.30 1013.53 1013.89 1014.25 1014.82 1015.23 1016.00 1016.42 1017.01
1013.57 1013.87 1013.28 1012.79 1012.46 1012.74 1012.64 1012.99 1012.99 1014.02 1015.04 1015.10 1015.00 1013.58 1011.89 1011.47 1011.50 1011.72 1011.72 1011.59 1011.83 1012.04 1012.41 1012.57 1012.55 1012.28 1011.71 1011.51 1011.55 1011.81 1012.20 1012.45 1012.67 1013.06 1013.22 1013.51 1014.04 1014.18 1014.27 1014.72 1015.02 1015.85 1016.33 1016.82
1013.57 1013.83 1013.78 1013.16 1012.51 1012.44 1012.35 1012.89 1013.86 1014.24 1015.54 1016.01 1015.56 1014.33 1013.34 1012.57 1012.39 1012.30 1012.19 1012.39 1012.58 1012.42 1012.50 1012.58 1012.73 1012.49 1012.28 1012.01 1011.82 1011.82 1012.02 1012.27 1012.57 1012.96 1013.47 1013.85 1014.12 1014.29 1014.59 1014.99 1015.60 1015.74 1016.23 1016.84
1013.42 1013.93 1014.73 1014.06 1013.99 1013.54 1013.15 1013.35 1013.90 1014.63 1015.78 1016.43 1016.09 1014.88 1013.83 1013.56 1013.27 1012.94 1012.90 1012.81 1012.77 1012.63 1012.60 1012.60 1012.75 1012.63 1012.59 1012.56 1012.41 1012.30 1012.22 1012.35 1012.67 1012.99 1013.45 1013.89 1014.16 1014.48 1014.93 1015.41 1015.98 1016.25 1016.38 1016.93
1014.02 1014.66 1015.42 1015.42 1014.65 1014.17 1013.91 1014.06 1014.34 1015.29 1016.85 1017.24 1016.41 1015.08 1013.95 1013.55 1013.12 1012.79 1012.88 1012.87 1012.89 1012.60 1012.66 1012.83 1012.85 1012.79 1012.81 1012.92 1012.81 1012.77 1012.79 1012.98 1013.31 1013.69 1014.18 1014.45 1014.49 1014.92 1015.40 1015.66 1015.97 1016.55 1017.03 1017.50
1014.25 1015.15 1016.11 1016.12 1015.66 1014.83 1014.81 1014.93 1015.34 1015.77 1016.62 1017.34 1016.83 1015.26 1014.07 1013.74 1013.34 1012.99 1012.89 1012.63 1012.56 1012.62 1012.55 1012.61 1012.66 1012.98 1013.23 1013.38 1013.30 1013.24 1013.17 1013.15 1013.31 1013.57 1013.97 1014.45 1014.82 1015.01 1015.43 1015.89 1016.35 1016.64 1017.60 1017.94
1014.27 1015.67 1016.11 1016.46 1016.02 1015.66 1015.53 1015.55 1015.79 1016.36 1017.48 1017.47 1016.56 1015.38 1014.18 1013.70 1013.28 1012.97 1012.75 1012.70 1012.83 1012.79 1012.59 1012.35 1012.30 1012.49 1012.63 1012.71 1012.95 1012.93 1012.84 1012.98 1013.39 1013.70 1013.96 1014.24 1014.64 1015.07 1015.28 1015.64 1015.83 1016.31 1017.25 1018.08
1014.89 1016.40 1016.86 1016.72 1016.24 1015.89 1015.74 1015.72 1015.97 1016.46 1016.67 1016.73 1016.34 1015.92 1014.70 1014.15 1013.89 1013.43 1013.03 1012.90 1012.91 1012.65 1012.55 1012.50 1012.51 1012.53 1012.48 1012.50 1012.46 1012.37 1012.52 1012.77 1013.07 1013.41 1013.74 1013.98 1014.36 1014.88 1015.46 1015.81 1016.15 1016.37 1017.10 1017.58
1015.64 1016.92 1017.22 1017.45 1017.00 1016.60 1016.09 1015.79 1015.85 1016.03 1016.27 1016.51 1016.37 1015.86 1014.78 1014.54 1014.09 1013.66 1013.62 1013.43 1013.23 1013.05 1013.12 1013.12 1013.03 1012.85 1012.60 1012.47 1012.33 1012.43 1012.48 1012.60 1013.03 1013.29 1013.53 1013.93 1014.34 1014.96 1015.65 1015.80 1016.31 1016.78 1017.24 1017.85
1016.31 1017.08 1017.75 1018.15 1017.51 1016.84 1016.61 1015.87 1015.93 1016.27 1016.15 1016.13 1016.01 1015.47 1015.18 1014.72 1014.62 1014.41 1014.20 1013.89 1013.66 1013.46 1013.28 1013.03 1012.84 1012.69 1012.55 1012.57 1012.60 1012.43 1012.20 1012.36 1012.58 1013.05 1013.44 1013.79 1014.21 1015.03 1015.71 1015.93 1016.48 1016.97 1017.48 1017.89
1016.72 1017.50 1018.21 1018.60 1017.89 1017.40 1016.31 1015.50 1015.38 1015.42 1015.54 1015.66 1015.88 1015.79 1015.71 1015.77 1015.39 1014.86 1014.57 1014.46 1014.31 1014.13 1013.88 1013.63 1013.26 1012.96 1012.60 1012.29 1012.15 1012.03 1011.84 1011.76 1012.04 1012.50 1012.83 1013.35 1014.09 1014.75 1015.30 1015.90 1016.39 1016.90 1017.51 1017.95
1016.89 1017.65 1018.76 1018.97 1018.83 1017.75 1016.29 1015.70 1015.60 1015.66 1016.33 1016.69 1016.72 1016.90 1016.82 1016.45 1015.80 1015.05 1014.97 1015.05 1014.97 1014.71 1014.34 1013.94 1013.39 1012.90 1012.51 1012.13 1011.77 1011.70 1011.52 1011.49 1011.71 1012.02 1012.34 1012.78 1013.42 1014.14 1014.83 1015.42 1016.22 1016.89 1017.38 1017.80
1017.43 1017.74 1018.75 1019.12 1018.88 1017.77 1016.55 1016.10 1015.76 1015.92 1016.95 1017.48 1017.67 1017.74 1017.62 1017.18 1017.03 1016.06 1015.60 1015.40 1014.82 1014.25 1013.83 1013.40 1012.97 1012.72 1012.42 1011.80 1011.95 1011.87 1011.48 1011.45 1011.55 1011.41 1011.59 1012.07 1012.81 1013.54 1014.30 1014.90 1015.82 1016.53 1017.06 1017.63
1018.30 1018.76 1019.13 1019.34 1019.08 1017.84 1016.81 1016.41 1016.24 1017.12 1018.37 1017.87 1018.00 1018.07 1017.97 1017.98 1017.53 1016.50 1015.87 1015.22 1014.59 1014.07 1013.50 1013.02 1012.73 1012.66 1012.29 1011.98 1012.00 1011.77 1011.32 1011.06 1010.41 1010.84 1011.26 1011.71 1012.17 1012.87 1013.67 1014.46 1015.29 1016.10 1016.86 1017.53
1018.26 1018.95 1019.44 1019.43 1019.06 1018.17 1016.87 1016.82 1017.29 1018.15 1018.19 1018.28 1018.29 1018.41 1018.31 1017.90 1017.24 1016.54 1015.76 1014.94 1014.27 1013.71 1013.15 1012.75 1012.55 1011.91 1011.52 1011.59 1011.67 1011.26 1010.73 1009.93 1010.16 1010.29 1010.75 1011.32 1011.81 1012.47 1013.49 1014.23 1015.15 1015.95 1016.68 1017.26
1018.31 1018.07 1018.45 1018.63 1017.97 1017.36 1017.21 1017.46 1017.87 1018.30 1018.34 1018.60 1018.78 1018.44 1018.13 1017.55 1016.95 1016.25 1015.28 1014.55 1013.79 1013.27 1012.69 1012.24 1011.87 1011.46 1010.68 1010.75 1010.83 1010.60 1009.70 1009.51 1009.50 1009.86 1010.28 1010.83 1011.52 1012.27 1012.92 1013.82 1014.71 1015.61 1016.28 1016.62
1017.94 1017.95 1018.18 1018.26 1017.69 1017.51 1017.61 1018.03 1018.25 1018.57 1018.74 1018.86 1018.73 1018.33 1017.96 1017.33 1016.56 1015.83 1015.12 1014.25 1013.45 1012.82 1012.00 1011.56 1011.17 1010.74 1010.27 1009.96 1009.86 1009.77 1009.35 1009.18 1009.30 1009.43 1009.81 1010.49 1011.30 1012.10 1012.81 1013.43 1014.08 1014.87 1015.63 1016.15
1017.90 1018.10 1018.12 1018.05 1017.69 1017.65 1017.90 1018.22 1018.71 1018.90 1018.97 1018.87 1018.62 1018.24 1017.56 1016.88 1016.15 1015.69 1014.63 1013.80 1013.03 1012.15 1011.22 1010.78 1010.32 1009.89 1009.51 1009.30 1009.13 1009.16 1008.96 1008.94 1009.26 1009.63 1009.84 1010.35 1011.12 1011.85 1012.61 1013.09 1013.67 1014.24 1014.75 1015.25
1017.35 1017.27 1017.65 1017.57 1017.41 1017.67 1018.07 1018.32 1018.68 1018.94 1019.12 1018.92 1018.45 1017.74 1017.15 1016.74 1016.11 1015.45 1014.64 1013.73 1012.74 1011.52 1010.55 1010.01 1009.53 1008.97 1008.70 1008.71 1008.89 1008.95 1008.68 1008.67 1008.97 1009.53 1009.91 1010.38 1011.04 1011.63 1012.10 1012.80 1013.55 1013.97 1014.43 1014.83
Wind_Speed
3 3 6 15 12 9 5 4 8 2 13 6 9 8 15 13 4 5 3 3 3 3 1 3 5 9 13 14 17 15 12 13 8 4 4 9 12 7 5 4 6 7 9 10
4 6 7 8 9 11 11 9 10 14 13 5 7 6 12 11 5 4 3 2 2 2 2 4 4 3 8 14 11 13 15 13 10 8 5 0 3 2 2 4 6 9 8 8
6 2 11 7 7 10 5 14 9 9 10 4 5 4 4 6 5 4 5 4 1 0 2 1 6 7 5 7 11 10 12 11 10 8 3 3 2 1 2 3 3 4 6 7
6 4 6 7 5 8 6 9 13 18 10 5 2 2 4 4 11 6 7 5 6 5 2 3 4 4 7 9 4 6 6 8 9 8 9 9 6 9 4 4 2 1 3 3
1 5 6 3 3 8 3 13 12 10 6 5 4 3 4 4 9 9 6 7 8 8 6 7 6 7 6 3 6 6 6 6 6 6 9 9 9 7 3 2 7 4 4 6
5 2 3 3 3 8 13 15 7 4 2 4 4 3 5 2 7 2 4 8 7 7 7 7 6 4 7 3 5 6 7 6 6 6 7 7 8 6 3 4 7 5 4 5
7 14 3 6 10 8 8 6 3 4 3 3 1 1 7 3 7 3 8 9 7 6 6 7 6 6 7 7 5 5 5 7 5 5 5 4 5 5 7 8 7 10 6 4
6 6 11 12 5 4 4 3 4 5 3 2 5 3 5 2 6 4 1 3 3 6 3 5 8 7 7 8 6 6 6 5 3 4 4 2 3 3 4 6 7 6 7 9
4 5 4 6 2 2 4 4 2 7 4 5 1 6 7 4 6 6 7 8 8 7 5 4 1 4 7 7 7 4 5 5 5 5 4 3 4 5 5 6 7 6 6 6
2 6 4 5 3 4 3 1 2 4 4 3 1 3 3 8 8 6 8 8 7 6 6 5 5 5 6 5 3 2 5 5 5 5 5 5 6 6 6 5 5 8 8 8
3 4 3 2 4 3 6 4 4 6 4 4 2 3 3 7 6 3 6 6 6 7 6 6 6 5 4 2 2 3 4 5 5 4 3 5 5 6 6 5 4 4 7 9
4 5 4 2 4 2 2 2 3 5 1 3 3 4 2 4 2 4 4 4 3 3 4 4 4 5 5 2 1 3 4 6 6 6 6 6 6 6 6 6 6 6 6 6
1 3 3 7 6 5 4 3 4 5 5 1 4 5 3 3 5 4 4 5 5 6 6 3 2 2 1 2 3 5 5 6 6 6 7 7 7 7 7 7 6 7 6 6
4 3 4 6 4 2 3 3 3 5 4 3 4 3 5 7 6 7 6 5 6 7 8 7 7 5 5 3 2 3 4 5 6 7 7 7 6 7 7 7 8 9 7 6
4 4 3 3 1 3 2 3 2 2 2 5 3 5 6 7 6 7 6 6 8 9 8 7 7 6 6 6 5 3 3 4 5 6 6 7 7 6 6 7 6 7 6 7
3 1 3 5 7 5 1 1 2 3 3 4 4 7 5 5 5 6 8 8 8 8 7 6 7 7 7 7 6 5 6 6 6 6 7 6 6 7 7 7 7 6 6 6
3 3 3 3 4 3 4 1 1 2 1 1 2 5 5 8 7 6 7 6 7 7 7 8 7 6 7 7 6 7 7 5 7 7 6 7 7 7 7 7 7 7 7 6
3 3 2 1 4 4 6 3 4 5 4 3 4 6 6 5 7 7 6 5 7 7 7 9 7 7 6 5 7 6 5 6 7 7 7 7 7 8 7 7 6 6 5 5
4 4 4 3 1 5 1 2 2 3 3 7 6 8 6 9 7 6 8 7 6 7 8 8 7 8 7 9 8 6 6 6 6 8 9 10 10 9 9 9 8 5 5 4
4 6 5 1 2 3 5 1 0 2 2 6 6 7 7 8 5 5 8 10 11 11 9 9 9 7 8 11 6 6 8 6 9 11 12 10 10 11 11 10 9 5 4 5
3 3 4 2 2 6 4 5 1 2 4 5 4 4 5 2 5 9 12 10 7 8 10 9 8 8 10 8 5 8 7 9 13 6 7 9 10 11 10 10 5 7 5 7
5 5 3 2 1 6 2 1 1 2 3 5 4 5 6 9 11 11 13 14 12 11 8 9 8 9 9 6 5 10 9 10 6 8 9 9 9 8 8 10 6 7 7 6
2 5 5 7 6 3 1 6 4 2 3 4 4 6 8 12 13 14 14 16 13 14 12 7 8 11 8 7 6 8 9 6 7 9 10 9 8 8 9 10 9 7 6 5
2 2 2 1 2 4 1 4 3 1 1 4 5 8 8 12 17 19 18 18 17 17 16 10 9 9 11 6 6 7 7 5 6 7 9 9 10 9 8 6 7 7 6 5
5 4 4 3 4 2 2 3 0 1 3 6 7 7 12 14 15 16 17 16 15 17 15 11 13 12 11 6 5 5 4 5 5 5 7 8 7 7 7 5 6 6 5 7
6 7 6 6 5 4 3 2 2 4 5 7 11 12 11 14 17 16 16 15 15 17 13 13 16 11 9 4 4 4 4 5 7 5 5 6 6 6 6 6 4 8 6 13
Wind_Direction
211 204 202 192 192 235 285 155 124 156 147 112 223 255 265 290 320 346 42 53 88 85 114 168 151 164 159 166 188 185 185 203 194 195 204 203 198 217 222 245 217 202 192 187
234 236 188 148 209 207 196 147 136 109 121 98 187 240 281 314 324 302 312 339 40 51 71 103 114 175 182 190 194 189 198 209 197 194 210 225 125 221 217 185 223 211 189 190
248 313 156 150 189 167 167 154 152 130 144 163 151 257 229 282 307 262 258 257 272 215 285 10 158 192 211 202 198 201 211 209 216 214 135 106 131 125 191 199 202 214 210 187
245 149 143 153 131 162 162 173 134 127 183 91 329 291 249 297 308 258 257 248 271 262 223 244 285 214 199 215 208 211 200 222 217 200 205 197 209 236 232 198 163 170 39 26
114 165 101 119 212 171 128 142 123 101 90 119 360 38 295 64 305 266 269 240 241 248 234 242 232 254 254 203 191 211 207 212 210 201 206 207 209 219 171 151 116 95 56 57
97 137 153 283 342 130 124 93 76 86 198 73 163 68 317 170 232 205 237 243 232 231 250 247 245 284 268 218 226 203 201 215 200 195 212 198 201 173 177 131 118 103 80 68
3 26 25 52 65 36 75 51 51 35 39 120 93 95 230 262 259 281 273 279 240 209 220 262 269 254 264 262 232 229 225 229 182 178 207 203 221 185 167 149 152 139 137 114
60 31 2 341 45 92 28 60 145 132 135 58 70 257 264 323 315 302 184 348 106 166 193 237 267 266 259 258 244 204 209 239 145 133 153 182 189 159 143 154 154 155 150 136
100 61 315 43 345 86 271 64 182 101 41 71 258 293 312 5 35 39 59 55 59 79 105 119 328 286 287 274 265 242 179 164 172 170 158 155 151 153 141 144 143 147 137 136
161 99 6 346 345 60 117 146 106 352 104 90 310 274 261 351 347 17 30 35 27 40 41 31 15 360 334 308 289 196 176 170 157 151 156 157 151 141 129 117 135 149 138 142
99 85 316 22 9 358 354 14 41 117 72 130 112 303 230 272 283 8 33 24 30 29 20 8 353 356 1 325 285 180 169 156 159 142 132 140 139 130 121 126 134 153 145 163
360 100 66 77 303 306 1 58 55 104 310 63 106 290 24 302 49 83 58 24 351 24 355 337 330 328 346 1 235 196 163 163 165 161 157 152 135 124 112 99 88 71 83 65
23 9 63 356 358 359 60 19 86 77 52 300 105 265 349 21 49 39 22 0 0 344 329 292 299 317 281 262 211 191 187 186 176 159 149 148 147 133 127 120 119 113 114 112
93 75 134 166 197 154 145 138 107 96 99 179 226 287 303 335 349 336 332 293 325 315 305 310 319 318 312 304 262 238 203 176 174 169 165 162 161 159 155 154 150 130 130 123
79 89 64 60 35 68 53 57 102 94 163 138 282 220 273 280 288 287 294 295 314 312 319 320 305 304 300 306 304 287 260 206 183 176 176 177 163 154 143 136 130 126 141 136
6 118 90 7 19 19 356 233 164 196 204 258 272 274 248 308 333 320 298 306 303 296 305 317 318 319 314 305 295 279 248 222 188 195 195 170 156 149 154 136 139 137 133 135
60 109 62 302 353 347 6 328 175 36 201 221 244 252 350 324 337 313 314 316 294 299 302 309 307 303 299 296 289 269 251 193 199 197 187 175 161 162 165 151 148 145 145 140
107 80 60 224 10 33 242 288 191 195 243 245 312 321 330 317 308 295 284 287 308 311 312 311 306 301 292 286 286 291 269 210 201 201 187 171 168 164 155 152 152 140 140 152
50 104 80 98 175 276 41 3 68 80 0 5 335 359 356 339 326 316 15 355 309 308 297 281 286 290 289 289 299 294 283 231 201 208 197 183 173 164 163 163 160 153 148 149
54 71 100 64 75 230 239 355 175 108 276 357 29 2 349 351 5 270 342 323 310 308 299 294 292 293 300 295 296 294 272 225 220 214 202 175 170 171 176 166 162 154 150 140
41 28 134 148 285 294 277 297 300 145 252 340 341 324 321 306 234 284 298 289 255 256 283 292 282 264 266 283 292 273 259 230 232 199 168 171 173 173 170 160 149 150 142 143
168 135 178 96 148 287 343 353 197 222 316 306 335 317 311 297 300 298 298 296 299 295 288 291 276 269 266 256 260 272 257 250 196 174 172 177 168 160 157 156 142 143 149 161
218 178 178 177 214 213 341 123 108 95 247 336 321 309 307 308 310 307 301 300 299 298 291 283 262 271 264 252 234 265 268 215 182 172 178 171 156 157 155 155 153 151 165 168
247 155 168 104 210 211 74 116 109 73 271 293 284 295 289 301 309 308 308 305 301 298 297 289 282 262 269 250 251 249 267 212 185 179 165 154 157 150 153 152 158 157 170 168
197 128 176 265 270 300 108 119 26 316 316 310 302 293 306 308 308 310 305 303 299 293 291 290 289 280 266 252 260 267 231 173 156 141 142 142 145 151 143 149 165 170 177 181
183 178 169 218 188 147 225 16 20 7 330 310 317 308 309 315 311 312 306 302 298 294 299 294 288 276 260 243 263 242 200 159 139 138 140 148 153 148 150 156 145 189 180 204